Weather Roundup
Issued by NWS Chicago, IL

Home | Current Version | Previous Version | Text Only | Print | Product List | Glossary On
Versions: 1 2 3 4 5 6 7 8 9 10 11 12 13 14 15 16 17 18 19 20 21 22 23 24 25 26 27 28 29 30 31 32 33 34 35 36 37 38 39 40 41 42 43 44 45 46 47 48 49 50
000
NZUS59 KLOT 041621
HRRLOT

CHICAGO AREA WEATHER ROUNDUP
NATIONAL WEATHER SERVICE CHICAGO/ROMEOVILLE IL
1100 AM CDT TUE AUG 04 2015

NOTE: "FAIR" INDICATES FEW OR NO CLOUDS BELOW 12,000 FEET WITH NO
SIGNIFICANT WEATHER AND/OR OBSTRUCTIONS TO VISIBILITY.

* THESE STATIONS ARE NOT UNDER NWS QUALITY CONTROL. THEY ALSO MAY NOT
  REPORT WEATHER SUCH AS PRECIPITATION OR FOG.

ILZ005-006-012>014-019>023-041700-
NORTHEAST ILLINOIS

CITY           SKY/WX    TMP DP  RH WIND       PRES   REMARKS
OHARE          PTSUNNY   78  50  37 W15G21    29.97S
MIDWAY         PTSUNNY   80  51  36 NW8       29.97F HX  80
AURORA         SUNNY     78  57  48 NW12      29.99F
LANSING*       SUNNY     78  51  38 W9        29.98F
JOLIET*        SUNNY     79  55  42 W8        29.99S HX  80
WAUKEGAN       MOSUNNY   76  54  46 VRB7      29.97R
DUPAGE AIRPORT SUNNY     77  54  44 W8        29.98F
WHEELING       MOSUNNY   79  49  34 W9G18     29.98S
KANKAKEE*      SUNNY     78  58  49 W6        30.01R
MORRIS*        SUNNY     77  58  52 NW10      29.98F
LEWIS AIRPORT* SUNNY     77  56  47 W7        29.99S
NORTHERLY IS     N/A     78  49  35 W3          N/A
$$

WIZ051-052-058>065-066-070>072-041700-
SOUTHEAST WISCONSIN

CITY           SKY/WX    TMP DP  RH WIND       PRES   REMARKS
MILWAUKEE      MOSUNNY   77  52  41 W14G20    29.96R
KENOSHA*       SUNNY     76  57  51 W14       29.97S
RACINE*        SUNNY     78  54  43 W12       29.97S
BURLINGTON     SUNNY     75  52  45 W12       29.98R
WAUKESHA       MOSUNNY   73  52  46 W9        29.98S
WEST BEND      SUNNY     72  52  49 NW13      29.97S
$$

INZ001>003-010>013-019-020-041700-
NORTHWEST INDIANA

CITY           SKY/WX    TMP DP  RH WIND       PRES   REMARKS
GARY*          PTSUNNY   79  52  38 W6        29.98S
MICHIGAN CITY* NOT AVBL
RENSSELAER*    NOT AVBL
VALPARAISO     SUNNY     77  52  41 NW5       29.99S
$$

LMZ740>746-041700-
SOUTHERN LAKE MICHIGAN

STATION/POSITION TIME  SKY/WX   TEMP WIND        PRES    VSBY
                                AIR  DIR/SP/G
                 (UTC)          (F)  (DEG/KT/KT) (MB)    (MI)
HARRISON CRIB    1600            75  270/ 11/ 13   N/A
BURNHAM HARBOR   1600            79  330/  3/ 13   N/A
CALUMET HARBOR   1500            77  250/  4/  7   N/A
BURNS HARBOR     1500            72  300/  5/  6 1015.9R
MICHIGAN CITY    1600            71  240/  8/  8   N/A
$$

ABBREVIATIONS USED IN REMARKS
   TC - TEMPERATURE IN CELSIUS
  WCI - WIND CHILL INDEX
   HX - HEAT INDEX
  VSB - VISIBILITY
$$


USA.gov is the U.S. government's official web portal to all federal, state and local government web resources and services.